TimeEET,TemperatureF,Dew PointF,Humidity,Sea Level PressureIn,VisibilityMPH,Wind Direction,Wind SpeedMPH,Gust SpeedMPH,PrecipitationIn,Events,Conditions,WindDirDegrees,DateUTC
12:20 AM,42.8,30.2,61,29.62,6.2,WNW,15.0,-,N/A,,Mostly Cloudy,300,2013-03-22 22:20:00
12:50 AM,42.8,30.2,61,29.62,6.2,West,9.2,-,N/A,,Mostly Cloudy,280,2013-03-22 22:50:00
1:20 AM,42.8,30.2,61,29.65,6.2,West,11.5,-,N/A,,Mostly Cloudy,270,2013-03-22 23:20:00
1:50 AM,42.8,30.2,61,29.65,6.2,West,12.7,-,N/A,,Mostly Cloudy,280,2013-03-22 23:50:00
2:00 AM,42,31,54,29.67,6,West,12.7,,,,Partly Cloudy,280,2013-03-23 00:00:00
2:20 AM,42.8,30.2,61,29.65,6.2,West,13.8,-,N/A,,Mostly Cloudy,280,2013-03-23 00:20:00
2:50 AM,41.0,32.0,70,29.65,6.2,West,11.5,-,N/A,,Mostly Cloudy,280,2013-03-23 00:50:00
3:20 AM,42.8,30.2,61,29.68,6.2,West,13.8,-,N/A,,Mostly Cloudy,280,2013-03-23 01:20:00
3:50 AM,41.0,32.0,70,29.68,6.2,West,12.7,-,N/A,,Mostly Cloudy,280,2013-03-23 01:50:00
4:20 AM,41.0,32.0,70,29.68,6.2,West,11.5,-,N/A,,Mostly Cloudy,280,2013-03-23 02:20:00
4:33 AM,41.0,32.0,70,29.71,6.2,West,11.5,-,N/A,Rain,Light Rain Showers,270,2013-03-23 02:33:00
4:50 AM,41.0,32.0,70,29.71,6.2,West,11.5,-,N/A,Rain,Light Rain Showers,280,2013-03-23 02:50:00
5:20 AM,41.0,33.8,76,29.71,6.2,West,10.4,-,N/A,,Mostly Cloudy,270,2013-03-23 03:20:00
5:50 AM,41.0,32.0,70,29.74,6.2,West,11.5,-,N/A,,Mostly Cloudy,270,2013-03-23 03:50:00
6:20 AM,41.0,32.0,70,29.74,6.2,West,9.2,-,N/A,,Mostly Cloudy,280,2013-03-23 04:20:00
6:50 AM,41.0,33.8,76,29.77,6.2,West,11.5,-,N/A,,Mostly Cloudy,280,2013-03-23 04:50:00
7:20 AM,41.0,33.8,76,29.77,6.2,West,9.2,-,N/A,,Mostly Cloudy,280,2013-03-23 05:20:00
7:50 AM,42.8,33.8,70,29.80,6.2,West,8.1,-,N/A,,Mostly Cloudy,270,2013-03-23 05:50:00
8:00 AM,42,34,63,29.81,6,West,8.1,,,,Partly Cloudy,270,2013-03-23 06:00:00
8:20 AM,42.8,33.8,70,29.80,6.2,West,9.2,-,N/A,,Mostly Cloudy,280,2013-03-23 06:20:00
8:50 AM,42.8,33.8,70,29.83,6.2,West,9.2,-,N/A,,Mostly Cloudy,270,2013-03-23 06:50:00
9:20 AM,44.6,32.0,61,29.83,6.2,West,9.2,-,N/A,,Mostly Cloudy,280,2013-03-23 07:20:00
9:50 AM,44.6,32.0,61,29.83,6.2,WNW,13.8,-,N/A,,Mostly Cloudy,290,2013-03-23 07:50:00
10:20 AM,46.4,32.0,57,29.83,6.2,West,11.5,-,N/A,,Mostly Cloudy,270,2013-03-23 08:20:00
10:50 AM,46.4,30.2,53,29.83,6.2,West,15.0,-,N/A,,Mostly Cloudy,280,2013-03-23 08:50:00
11:20 AM,46.4,32.0,57,29.86,6.2,West,10.4,-,N/A,,Mostly Cloudy,280,2013-03-23 09:20:00
11:50 AM,48.2,32.0,54,29.86,6.2,West,8.1,-,N/A,,Mostly Cloudy,280,2013-03-23 09:50:00
12:20 PM,48.2,30.2,50,29.86,6.2,WNW,9.2,-,N/A,,Mostly Cloudy,290,2013-03-23 10:20:00
12:50 PM,48.2,32.0,54,29.86,6.2,WNW,11.5,-,N/A,,Mostly Cloudy,290,2013-03-23 10:50:00
1:20 PM,48.2,30.2,50,29.89,6.2,West,10.4,-,N/A,,Mostly Cloudy,280,2013-03-23 11:20:00
1:50 PM,50.0,30.2,47,29.89,6.2,West,15.0,-,N/A,,Mostly Cloudy,270,2013-03-23 11:50:00
2:00 PM,49,30,35,29.90,6,West,15.0,,,,Mostly Cloudy,270,2013-03-23 12:00:00
2:20 PM,48.2,32.0,54,29.89,6.2,West,11.5,-,N/A,,Mostly Cloudy,260,2013-03-23 12:20:00
2:50 PM,50.0,30.2,47,29.89,6.2,West,9.2,-,N/A,,Mostly Cloudy,270,2013-03-23 12:50:00
3:20 PM,50.0,32.0,50,29.89,6.2,West,6.9,-,N/A,,Mostly Cloudy,260,2013-03-23 13:20:00
3:50 PM,50.0,33.8,54,29.89,6.2,SW,11.5,-,N/A,,Mostly Cloudy,230,2013-03-23 13:50:00
4:20 PM,51.8,33.8,50,29.89,6.2,SW,9.2,-,N/A,,Mostly Cloudy,230,2013-03-23 14:20:00
4:50 PM,50.0,35.6,58,29.92,6.2,SW,8.1,-,N/A,,Mostly Cloudy,230,2013-03-23 14:50:00
5:20 PM,50.0,37.4,62,29.92,6.2,SSW,5.8,-,N/A,,Scattered Clouds,210,2013-03-23 15:20:00
5:50 PM,48.2,37.4,66,29.92,6.2,SW,3.5,-,N/A,,Scattered Clouds,220,2013-03-23 15:50:00
6:20 PM,48.2,37.4,66,29.92,6.2,SSW,5.8,-,N/A,,Scattered Clouds,200,2013-03-23 16:20:00
6:50 PM,48.2,37.4,66,29.92,6.2,South,3.5,-,N/A,,Scattered Clouds,180,2013-03-23 16:50:00
7:20 PM,48.2,37.4,66,29.95,6.2,South,4.6,-,N/A,,Scattered Clouds,170,2013-03-23 17:20:00
7:50 PM,46.4,37.4,71,29.95,6.2,Variable,2.3,-,N/A,,Partly Cloudy,0,2013-03-23 17:50:00
8:00 PM,47,37,58,29.97,6,South,2.3,,,,Scattered Clouds,190,2013-03-23 18:00:00
8:20 PM,48.2,37.4,66,29.95,6.2,Variable,1.2,-,N/A,,Partly Cloudy,0,2013-03-23 18:20:00
8:50 PM,48.2,37.4,66,29.95,-9999.0,WSW,3.5,-,N/A,,Clear,250,2013-03-23 18:50:00
9:20 PM,48.2,37.4,66,29.98,-9999.0,WSW,4.6,-,N/A,,Clear,250,2013-03-23 19:20:00
9:50 PM,42.8,35.6,76,29.98,-9999.0,North,2.3,-,N/A,,Clear,360,2013-03-23 19:50:00
10:20 PM,41.0,35.6,81,29.98,-9999.0,Variable,1.2,-,N/A,,Clear,0,2013-03-23 20:20:00
10:50 PM,41.0,35.6,81,29.98,-9999.0,NNW,4.6,-,N/A,,Clear,340,2013-03-23 20:50:00
11:20 PM,41.0,35.6,81,29.98,4.3,North,6.9,-,N/A,,Unknown,350,2013-03-23 21:20:00
11:50 PM,41.0,35.6,81,29.98,3.7,North,4.6,-,N/A,,Unknown,350,2013-03-23 21:50:00